David F Stone — WCZ6032 — position and weather

sailwx.info

Track history (hours):
 
Tides and Currents Weather Stations Pressure Air Temp Water Temp Dewpoint Dewpoint Depression Visibility Wind Speed Wind Dir Waves Ship Positions

David F Stone

Owner: Blessey Enterprises, Inc., HARAHAN, LA. More information available from US FCC via Universal Licensing System and Coast Guard Vessel Documentation Center.

Last reported at 2018-Jul-19 17:42 UTC. Time now 2018-Jul-19 23:15 UTC.
Position N 28°57' W 095°17'.

Length 20 m.

Type: Ship. MMSI: 366935420.

Date/timePositionNaut miles runAvg speedWind from/ knotsBaromVisibWave heightAir tempDewpointWater temp
2018-Jul-19 17:42N 28°57' W 095°17'2 6.0
2018-Jul-19 17:19N 28°59' W 095°16'2 5.9
2018-Jul-19 17:00N 29°01' W 095°15'3 5.4
2018-Jul-19 16:30N 29°03' W 095°13'3 5.2
2018-Jul-19 16:00N 29°06' W 095°12'3 5.3
2018-Jul-19 15:30N 29°08' W 095°11'3 6.3
2018-Jul-19 15:00N 29°10' W 095°08'6 6.3
2018-Jul-19 14:01N 29°13' W 095°02'3 6.5
2018-Jul-19 13:30N 29°16' W 094°59'3 6.2
2018-Jul-19 13:00N 29°17' W 094°56'3 5.8
2018-Jul-19 12:30N 29°18' W 094°53'3 6.3
2018-Jul-19 12:01N 29°20' W 094°50'3 6.0
2018-Jul-19 11:30N 29°23' W 094°49'4 7.4
2018-Jul-19 11:00N 29°26' W 094°50'4 7.4
2018-Jul-19 10:29N 29°30' W 094°52'3 7.3
2018-Jul-19 10:00N 29°33' W 094°54'4 7.1
2018-Jul-19 09:30N 29°35' W 094°57'3 6.3
2018-Jul-19 09:00N 29°37' W 094°60'1 2.9
2018-Jul-19 08:31N 29°37' W 095°01'0 0.0
2018-Jul-19 08:01N 29°37' W 095°01'0 0.0
2018-Jul-19 07:30N 29°37' W 095°01'0 0.0
2018-Jul-19 07:00N 29°37' W 095°01'0 0.0
2018-Jul-19 06:30N 29°37' W 095°01'0 0.0
2018-Jul-19 06:01N 29°37' W 095°01'0 0.0
2018-Jul-19 05:31N 29°37' W 095°01'0 0.0
2018-Jul-19 05:01N 29°37' W 095°01'0 0.0
2018-Jul-19 04:31N 29°37' W 095°01'0 0.0
2018-Jul-19 04:01N 29°37' W 095°01'0 0.0
2018-Jul-19 03:30N 29°37' W 095°01'0 0.0
2018-Jul-19 03:01N 29°37' W 095°01'1 1.3
2018-Jul-19 02:31N 29°37' W 095°01'3 5.8
2018-Jul-19 02:00N 29°38' W 094°58'4 8.8
2018-Jul-19 01:31N 29°42' W 095°00'7 1.1
2018-Jul-18 19:36N 29°47' W 095°05'0 0.0
2018-Jul-18 18:45N 29°47' W 095°05'0 0.0
2018-Jul-18 18:15N 29°47' W 095°05'0 0.0
2018-Jul-18 17:48N 29°47' W 095°05'0 0.0
2018-Jul-18 17:28N 29°47' W 095°05'0 0.0
2018-Jul-18 16:45N 29°47' W 095°05'0 0.0
2018-Jul-18 16:05N 29°47' W 095°05'0 0.0
2018-Jul-18 15:50N 29°47' W 095°05'0 0.0
2018-Jul-18 14:15N 29°47' W 095°05'0 0.0
2018-Jul-18 13:28N 29°47' W 095°05'0 0.0
2018-Jul-18 13:00N 29°47' W 095°05'0 0.0
2018-Jul-18 12:30N 29°47' W 095°05'0 0.0
2018-Jul-18 11:59N 29°47' W 095°05'0 0.0
2018-Jul-18 11:30N 29°47' W 095°05'0 0.0
2018-Jul-18 10:29N 29°47' W 095°05'0 0.0
2018-Jul-18 10:00N 29°47' W 095°05'0 0.0
2018-Jul-18 09:30N 29°47' W 095°05'0 0.0
2018-Jul-18 09:00N 29°47' W 095°05'0 0.0
2018-Jul-18 08:31N 29°47' W 095°05'0 0.0
2018-Jul-18 08:00N 29°47' W 095°05'0 0.0
2018-Jul-18 07:30N 29°47' W 095°05'0 0.0
2018-Jul-18 07:00N 29°47' W 095°05'0 0.0
2018-Jul-18 06:30N 29°47' W 095°05'0 0.3
2018-Jul-18 06:00N 29°47' W 095°05'0 0.0
2018-Jul-18 05:28N 29°47' W 095°05'1 1.7
2018-Jul-18 05:00N 29°47' W 095°05'3 5.7
2018-Jul-18 04:30N 29°44' W 095°03'4 7.6
2018-Jul-18 04:00N 29°42' W 094°60'4 8.6
2018-Jul-18 03:30N 29°38' W 094°58'4 8.7
2018-Jul-18 03:00N 29°34' W 094°55'5 8.9
2018-Jul-18 02:30N 29°30' W 094°52'5 9.2
2018-Jul-18 01:58N 29°26' W 094°50'4 9.2
2018-Jul-18 01:30N 29°22' W 094°48'4 8.3
2018-Jul-18 01:00N 29°19' W 094°52'4 7.5
2018-Jul-18 00:31N 29°17' W 094°56'4 8.3
2018-Jul-18 00:00N 29°15' W 094°60'4 8.2
2018-Jul-17 23:30N 29°12' W 095°03'4 8.3
2018-Jul-17 23:00N 29°10' W 095°07'4 8.2
2018-Jul-17 22:30N 29°08' W 095°11'4 7.7
2018-Jul-17 22:01N 29°04' W 095°13'4 7.7
2018-Jul-17 21:30N 29°01' W 095°14'4 7.9
2018-Jul-17 21:00N 28°58' W 095°17'4 8.0
2018-Jul-17 20:28N 28°55' W 095°21'36 2.5
2018-Jul-17 06:24N 28°51' W 096°02'0 0.0
2018-Jul-17 06:00N 28°51' W 096°02'0 0.0
2018-Jul-17 05:27N 28°51' W 096°02'0 0.0
2018-Jul-17 05:00N 28°51' W 096°02'0 0.0
2018-Jul-17 04:22N 28°51' W 096°02'0 1.3
2018-Jul-17 04:00N 28°51' W 096°02'2 3.8
2018-Jul-17 03:22N 28°49' W 096°00'39 3.7
2018-Jul-16 16:45N 28°58' W 095°17'1 1.0
2018-Jul-16 15:57N 28°59' W 095°16'1 3.0
2018-Jul-16 15:30N 28°60' W 095°15'2 4.8
2018-Jul-16 15:00N 29°02' W 095°14'2 4.7
2018-Jul-16 14:31N 29°04' W 095°13'2 4.9
2018-Jul-16 14:00N 29°07' W 095°12'2 4.6
2018-Jul-16 13:30N 29°08' W 095°10'3 6.2
2018-Jul-16 13:00N 29°10' W 095°07'3 6.2
2018-Jul-16 12:30N 29°12' W 095°04'3 6.2
2018-Jul-16 12:00N 29°14' W 095°02'3 6.5
2018-Jul-16 11:30N 29°16' W 094°59'3 6.3
2018-Jul-16 11:00N 29°17' W 094°56'3 5.8
2018-Jul-16 10:31N 29°18' W 094°53'3 7.0
2018-Jul-16 10:01N 29°21' W 094°50'3 5.8
2018-Jul-16 09:30N 29°23' W 094°49'5 8.7
2018-Jul-16 08:59N 29°28' W 094°51'4 8.7
2018-Jul-16 08:30N 29°31' W 094°53'4 8.2
2018-Jul-16 08:00N 29°35' W 094°56'3 6.7
2018-Jul-16 07:30N 29°37' W 094°59'2 4.5
2018-Jul-16 07:00N 29°37' W 095°01'0 0.0
2018-Jul-16 06:30N 29°37' W 095°01'0 0.0
2018-Jul-16 06:00N 29°37' W 095°01'0 0.0
2018-Jul-16 05:30N 29°37' W 095°01'0 0.0
2018-Jul-16 05:00N 29°37' W 095°01'0 0.0
2018-Jul-16 04:30N 29°37' W 095°01'0 0.0
2018-Jul-16 04:00N 29°37' W 095°01'0 0.0
2018-Jul-16 03:30N 29°37' W 095°01'0 0.0
2018-Jul-16 03:00N 29°37' W 095°01'0 0.0
2018-Jul-16 02:30N 29°37' W 095°01'0 0.0
2018-Jul-16 02:00N 29°37' W 095°01'0 0.0
2018-Jul-16 01:30N 29°37' W 095°01'0 0.0
2018-Jul-16 01:00N 29°37' W 095°01'0 0.0
2018-Jul-16 00:30N 29°37' W 095°01'1 1.0
2018-Jul-16 00:00N 29°37' W 095°01'3 6.0
2018-Jul-15 23:30N 29°38' W 094°58'4 8.1
2018-Jul-15 23:00N 29°42' W 094°59'10 0.6
2018-Jul-15 04:56N 29°45' W 095°11'7 5.1
2018-Jul-15 03:36N 29°44' W 095°03'2 5.8
2018-Jul-15 03:12N 29°42' W 095°01'1 6.5
2018-Jul-15 03:00N 29°42' W 094°60'3 6.6
2018-Jul-15 02:30N 29°39' W 094°58'4 7.0
2018-Jul-15 02:00N 29°36' W 094°56'4 7.1
2018-Jul-15 01:30N 29°33' W 094°54'9 6.9
2018-Jul-15 00:15N 29°25' W 094°49'2 7.1
2018-Jul-15 00:00N 29°23' W 094°49'3 5.8
2018-Jul-14 23:29N 29°20' W 094°50'3 7.0
2018-Jul-14 23:00N 29°18' W 094°53'3 5.9
2018-Jul-14 22:30N 29°17' W 094°56'3 6.2
2018-Jul-14 22:00N 29°16' W 094°59'3 6.4
2018-Jul-14 21:30N 29°14' W 095°02'3 6.1
2018-Jul-14 21:00N 29°12' W 095°04'3 6.4
2018-Jul-14 20:30N 29°10' W 095°07'3 6.5
2018-Jul-14 20:00N 29°08' W 095°10'3 6.1
2018-Jul-14 19:30N 29°06' W 095°12'3 6.3
2018-Jul-14 19:00N 29°03' W 095°14'3 6.5
2018-Jul-14 18:30N 28°60' W 095°15'3 5.1
2018-Jul-14 17:58N 28°58' W 095°17'7 4.6
2018-Jul-14 16:24N 28°54' W 095°24'8 0.2
2018-Jul-13 04:08N 28°58' W 095°17'3 8.0
2018-Jul-13 03:48N 29°00' W 095°15'3 8.3
2018-Jul-13 03:29N 29°03' W 095°13'4 8.1
2018-Jul-13 03:00N 29°06' W 095°12'4 7.3
2018-Jul-13 02:30N 29°09' W 095°09'4 7.3
2018-Jul-13 02:00N 29°11' W 095°06'4 7.4
2018-Jul-13 01:30N 29°13' W 095°02'4 7.2
2018-Jul-13 01:00N 29°16' W 094°60'3 6.4
2018-Jul-13 00:30N 29°17' W 094°56'3 5.6
2018-Jul-13 00:00N 29°18' W 094°53'3 6.7
2018-Jul-12 23:30N 29°20' W 094°50'1 2.2
2018-Jul-12 23:00N 29°21' W 094°49'0 0.0
2018-Jul-12 22:29N 29°21' W 094°49'0 0.0
2018-Jul-12 21:51N 29°21' W 094°49'0 0.0
2018-Jul-12 21:26N 29°21' W 094°49'0 0.0
2018-Jul-12 20:55N 29°21' W 094°49'0 0.0
2018-Jul-12 20:29N 29°21' W 094°49'0 0.3
2018-Jul-12 18:44N 29°21' W 094°50'2 6.3
2018-Jul-12 18:28N 29°19' W 094°51'3 6.3
2018-Jul-12 18:00N 29°17' W 094°54'3 5.7
2018-Jul-12 17:29N 29°17' W 094°57'3 6.0
2018-Jul-12 17:00N 29°16' W 094°60'3 6.0
2018-Jul-12 16:30N 29°13' W 095°02'3 5.9
2018-Jul-12 16:00N 29°11' W 095°05'3 6.1
2018-Jul-12 15:30N 29°10' W 095°08'3 6.2
2018-Jul-12 15:00N 29°08' W 095°10'3 5.9
2018-Jul-12 14:30N 29°06' W 095°12'3 6.5
2018-Jul-12 14:00N 29°03' W 095°14'4 7.1
2018-Jul-12 13:25N 28°59' W 095°16'  
2018-Jul-10 06:42N 29°01' W 095°14'1 6.7
2018-Jul-10 06:30N 29°03' W 095°14'3 6.8
2018-Jul-10 06:00N 29°06' W 095°12'3 7.0
2018-Jul-10 05:30N 29°09' W 095°10'4 7.4
2018-Jul-10 05:00N 29°11' W 095°06'4 7.4
2018-Jul-10 04:30N 29°12' W 095°03'4 7.3
2018-Jul-10 04:00N 29°15' W 094°60'3 5.7
2018-Jul-10 03:25N 29°17' W 094°57'3 6.6
2018-Jul-10 03:00N 29°17' W 094°54'3 7.0
2018-Jul-10 02:30N 29°20' W 094°51'12 7.7
2018-Jul-10 00:57N 29°32' W 094°53'4 8.7
2018-Jul-10 00:30N 29°35' W 094°56'4 8.5
2018-Jul-10 00:00N 29°39' W 094°58'4 8.6
2018-Jul-09 23:30N 29°42' W 095°01'6 1.8
2018-Jul-09 20:14N 29°44' W 095°07'0 0.0
2018-Jul-09 20:00N 29°44' W 095°07'0 0.0
2018-Jul-09 19:28N 29°44' W 095°07'0 0.3
2018-Jul-09 18:54N 29°44' W 095°07'  
Track history (hours):
 
Tides and Currents Weather Stations Pressure Air Temp Water Temp Dewpoint Dewpoint Depression Visibility Wind Speed Wind Dir Waves Ship Positions

David F Stone

Owner: Blessey Enterprises, Inc., HARAHAN, LA. More information available from US FCC via Universal Licensing System and Coast Guard Vessel Documentation Center.

Last reported at 2018-Jul-19 17:42 UTC. Time now 2018-Jul-19 23:15 UTC.
Position N 28°57' W 095°17'.

Length 20 m.

Type: Ship. MMSI: 366935420.

Date/timePositionNaut miles runAvg speedWind from/ knotsBaromVisibWave heightAir tempDewpointWater temp
2018-Jul-19 17:42N 28°57' W 095°17'2 6.0
2018-Jul-19 17:19N 28°59' W 095°16'2 5.9
2018-Jul-19 17:00N 29°01' W 095°15'3 5.4
2018-Jul-19 16:30N 29°03' W 095°13'3 5.2
2018-Jul-19 16:00N 29°06' W 095°12'3 5.3
2018-Jul-19 15:30N 29°08' W 095°11'3 6.3
2018-Jul-19 15:00N 29°10' W 095°08'6 6.3
2018-Jul-19 14:01N 29°13' W 095°02'3 6.5
2018-Jul-19 13:30N 29°16' W 094°59'3 6.2
2018-Jul-19 13:00N 29°17' W 094°56'3 5.8
2018-Jul-19 12:30N 29°18' W 094°53'3 6.3
2018-Jul-19 12:01N 29°20' W 094°50'3 6.0
2018-Jul-19 11:30N 29°23' W 094°49'4 7.4
2018-Jul-19 11:00N 29°26' W 094°50'4 7.4
2018-Jul-19 10:29N 29°30' W 094°52'3 7.3
2018-Jul-19 10:00N 29°33' W 094°54'4 7.1
2018-Jul-19 09:30N 29°35' W 094°57'3 6.3
2018-Jul-19 09:00N 29°37' W 094°60'1 2.9
2018-Jul-19 08:31N 29°37' W 095°01'0 0.0
2018-Jul-19 08:01N 29°37' W 095°01'0 0.0
2018-Jul-19 07:30N 29°37' W 095°01'0 0.0
2018-Jul-19 07:00N 29°37' W 095°01'0 0.0
2018-Jul-19 06:30N 29°37' W 095°01'0 0.0
2018-Jul-19 06:01N 29°37' W 095°01'0 0.0
2018-Jul-19 05:31N 29°37' W 095°01'0 0.0
2018-Jul-19 05:01N 29°37' W 095°01'0 0.0
2018-Jul-19 04:31N 29°37' W 095°01'0 0.0
2018-Jul-19 04:01N 29°37' W 095°01'0 0.0
2018-Jul-19 03:30N 29°37' W 095°01'0 0.0
2018-Jul-19 03:01N 29°37' W 095°01'1 1.3
2018-Jul-19 02:31N 29°37' W 095°01'3 5.8
2018-Jul-19 02:00N 29°38' W 094°58'4 8.8
2018-Jul-19 01:31N 29°42' W 095°00'7 1.1
2018-Jul-18 19:36N 29°47' W 095°05'0 0.0
2018-Jul-18 18:45N 29°47' W 095°05'0 0.0
2018-Jul-18 18:15N 29°47' W 095°05'0 0.0
2018-Jul-18 17:48N 29°47' W 095°05'0 0.0
2018-Jul-18 17:28N 29°47' W 095°05'0 0.0
2018-Jul-18 16:45N 29°47' W 095°05'0 0.0
2018-Jul-18 16:05N 29°47' W 095°05'0 0.0
2018-Jul-18 15:50N 29°47' W 095°05'0 0.0
2018-Jul-18 14:15N 29°47' W 095°05'0 0.0
2018-Jul-18 13:28N 29°47' W 095°05'0 0.0
2018-Jul-18 13:00N 29°47' W 095°05'0 0.0
2018-Jul-18 12:30N 29°47' W 095°05'0 0.0
2018-Jul-18 11:59N 29°47' W 095°05'0 0.0
2018-Jul-18 11:30N 29°47' W 095°05'0 0.0
2018-Jul-18 10:29N 29°47' W 095°05'0 0.0
2018-Jul-18 10:00N 29°47' W 095°05'0 0.0
2018-Jul-18 09:30N 29°47' W 095°05'0 0.0
2018-Jul-18 09:00N 29°47' W 095°05'0 0.0
2018-Jul-18 08:31N 29°47' W 095°05'0 0.0
2018-Jul-18 08:00N 29°47' W 095°05'0 0.0
2018-Jul-18 07:30N 29°47' W 095°05'0 0.0
2018-Jul-18 07:00N 29°47' W 095°05'0 0.0
2018-Jul-18 06:30N 29°47' W 095°05'0 0.3
2018-Jul-18 06:00N 29°47' W 095°05'0 0.0
2018-Jul-18 05:28N 29°47' W 095°05'1 1.7
2018-Jul-18 05:00N 29°47' W 095°05'3 5.7
2018-Jul-18 04:30N 29°44' W 095°03'4 7.6
2018-Jul-18 04:00N 29°42' W 094°60'4 8.6
2018-Jul-18 03:30N 29°38' W 094°58'4 8.7
2018-Jul-18 03:00N 29°34' W 094°55'5 8.9
2018-Jul-18 02:30N 29°30' W 094°52'5 9.2
2018-Jul-18 01:58N 29°26' W 094°50'4 9.2
2018-Jul-18 01:30N 29°22' W 094°48'4 8.3
2018-Jul-18 01:00N 29°19' W 094°52'4 7.5
2018-Jul-18 00:31N 29°17' W 094°56'4 8.3
2018-Jul-18 00:00N 29°15' W 094°60'4 8.2
2018-Jul-17 23:30N 29°12' W 095°03'4 8.3
2018-Jul-17 23:00N 29°10' W 095°07'4 8.2
2018-Jul-17 22:30N 29°08' W 095°11'4 7.7
2018-Jul-17 22:01N 29°04' W 095°13'4 7.7
2018-Jul-17 21:30N 29°01' W 095°14'4 7.9
2018-Jul-17 21:00N 28°58' W 095°17'4 8.0
2018-Jul-17 20:28N 28°55' W 095°21'36 2.5
2018-Jul-17 06:24N 28°51' W 096°02'0 0.0
2018-Jul-17 06:00N 28°51' W 096°02'0 0.0
2018-Jul-17 05:27N 28°51' W 096°02'0 0.0
2018-Jul-17 05:00N 28°51' W 096°02'0 0.0
2018-Jul-17 04:22N 28°51' W 096°02'0 1.3
2018-Jul-17 04:00N 28°51' W 096°02'2 3.8
2018-Jul-17 03:22N 28°49' W 096°00'39 3.7
2018-Jul-16 16:45N 28°58' W 095°17'1 1.0
2018-Jul-16 15:57N 28°59' W 095°16'1 3.0
2018-Jul-16 15:30N 28°60' W 095°15'2 4.8
2018-Jul-16 15:00N 29°02' W 095°14'2 4.7
2018-Jul-16 14:31N 29°04' W 095°13'2 4.9
2018-Jul-16 14:00N 29°07' W 095°12'2 4.6
2018-Jul-16 13:30N 29°08' W 095°10'3 6.2
2018-Jul-16 13:00N 29°10' W 095°07'3 6.2
2018-Jul-16 12:30N 29°12' W 095°04'3 6.2
2018-Jul-16 12:00N 29°14' W 095°02'3 6.5
2018-Jul-16 11:30N 29°16' W 094°59'3 6.3
2018-Jul-16 11:00N 29°17' W 094°56'3 5.8
2018-Jul-16 10:31N 29°18' W 094°53'3 7.0
2018-Jul-16 10:01N 29°21' W 094°50'3 5.8
2018-Jul-16 09:30N 29°23' W 094°49'5 8.7
2018-Jul-16 08:59N 29°28' W 094°51'4 8.7
2018-Jul-16 08:30N 29°31' W 094°53'4 8.2
2018-Jul-16 08:00N 29°35' W 094°56'3 6.7
2018-Jul-16 07:30N 29°37' W 094°59'2 4.5
2018-Jul-16 07:00N 29°37' W 095°01'0 0.0
2018-Jul-16 06:30N 29°37' W 095°01'0 0.0
2018-Jul-16 06:00N 29°37' W 095°01'0 0.0
2018-Jul-16 05:30N 29°37' W 095°01'0 0.0
2018-Jul-16 05:00N 29°37' W 095°01'0 0.0
2018-Jul-16 04:30N 29°37' W 095°01'0 0.0
2018-Jul-16 04:00N 29°37' W 095°01'0 0.0
2018-Jul-16 03:30N 29°37' W 095°01'0 0.0
2018-Jul-16 03:00N 29°37' W 095°01'0 0.0
2018-Jul-16 02:30N 29°37' W 095°01'0 0.0
2018-Jul-16 02:00N 29°37' W 095°01'0 0.0
2018-Jul-16 01:30N 29°37' W 095°01'0 0.0
2018-Jul-16 01:00N 29°37' W 095°01'0 0.0
2018-Jul-16 00:30N 29°37' W 095°01'1 1.0
2018-Jul-16 00:00N 29°37' W 095°01'3 6.0
2018-Jul-15 23:30N 29°38' W 094°58'4 8.1
2018-Jul-15 23:00N 29°42' W 094°59'10 0.6
2018-Jul-15 04:56N 29°45' W 095°11'7 5.1
2018-Jul-15 03:36N 29°44' W 095°03'2 5.8
2018-Jul-15 03:12N 29°42' W 095°01'1 6.5
2018-Jul-15 03:00N 29°42' W 094°60'3 6.6
2018-Jul-15 02:30N 29°39' W 094°58'4 7.0
2018-Jul-15 02:00N 29°36' W 094°56'4 7.1
2018-Jul-15 01:30N 29°33' W 094°54'9 6.9
2018-Jul-15 00:15N 29°25' W 094°49'2 7.1
2018-Jul-15 00:00N 29°23' W 094°49'3 5.8
2018-Jul-14 23:29N 29°20' W 094°50'3 7.0
2018-Jul-14 23:00N 29°18' W 094°53'3 5.9
2018-Jul-14 22:30N 29°17' W 094°56'3 6.2
2018-Jul-14 22:00N 29°16' W 094°59'3 6.4
2018-Jul-14 21:30N 29°14' W 095°02'3 6.1
2018-Jul-14 21:00N 29°12' W 095°04'3 6.4
2018-Jul-14 20:30N 29°10' W 095°07'3 6.5
2018-Jul-14 20:00N 29°08' W 095°10'3 6.1
2018-Jul-14 19:30N 29°06' W 095°12'3 6.3
2018-Jul-14 19:00N 29°03' W 095°14'3 6.5
2018-Jul-14 18:30N 28°60' W 095°15'3 5.1
2018-Jul-14 17:58N 28°58' W 095°17'7 4.6
2018-Jul-14 16:24N 28°54' W 095°24'8 0.2
2018-Jul-13 04:08N 28°58' W 095°17'3 8.0
2018-Jul-13 03:48N 29°00' W 095°15'3 8.3
2018-Jul-13 03:29N 29°03' W 095°13'4 8.1
2018-Jul-13 03:00N 29°06' W 095°12'4 7.3
2018-Jul-13 02:30N 29°09' W 095°09'4 7.3
2018-Jul-13 02:00N 29°11' W 095°06'4 7.4
2018-Jul-13 01:30N 29°13' W 095°02'4 7.2
2018-Jul-13 01:00N 29°16' W 094°60'3 6.4
2018-Jul-13 00:30N 29°17' W 094°56'3 5.6
2018-Jul-13 00:00N 29°18' W 094°53'3 6.7
2018-Jul-12 23:30N 29°20' W 094°50'1 2.2
2018-Jul-12 23:00N 29°21' W 094°49'0 0.0
2018-Jul-12 22:29N 29°21' W 094°49'0 0.0
2018-Jul-12 21:51N 29°21' W 094°49'0 0.0
2018-Jul-12 21:26N 29°21' W 094°49'0 0.0
2018-Jul-12 20:55N 29°21' W 094°49'0 0.0
2018-Jul-12 20:29N 29°21' W 094°49'0 0.3
2018-Jul-12 18:44N 29°21' W 094°50'2 6.3
2018-Jul-12 18:28N 29°19' W 094°51'3 6.3
2018-Jul-12 18:00N 29°17' W 094°54'3 5.7
2018-Jul-12 17:29N 29°17' W 094°57'3 6.0
2018-Jul-12 17:00N 29°16' W 094°60'3 6.0
2018-Jul-12 16:30N 29°13' W 095°02'3 5.9
2018-Jul-12 16:00N 29°11' W 095°05'3 6.1
2018-Jul-12 15:30N 29°10' W 095°08'3 6.2
2018-Jul-12 15:00N 29°08' W 095°10'3 5.9
2018-Jul-12 14:30N 29°06' W 095°12'3 6.5
2018-Jul-12 14:00N 29°03' W 095°14'4 7.1
2018-Jul-12 13:25N 28°59' W 095°16'  
2018-Jul-10 06:42N 29°01' W 095°14'1 6.7
2018-Jul-10 06:30N 29°03' W 095°14'3 6.8
2018-Jul-10 06:00N 29°06' W 095°12'3 7.0
2018-Jul-10 05:30N 29°09' W 095°10'4 7.4
2018-Jul-10 05:00N 29°11' W 095°06'4 7.4
2018-Jul-10 04:30N 29°12' W 095°03'4 7.3
2018-Jul-10 04:00N 29°15' W 094°60'3 5.7
2018-Jul-10 03:25N 29°17' W 094°57'3 6.6
2018-Jul-10 03:00N 29°17' W 094°54'3 7.0
2018-Jul-10 02:30N 29°20' W 094°51'12 7.7
2018-Jul-10 00:57N 29°32' W 094°53'4 8.7
2018-Jul-10 00:30N 29°35' W 094°56'4 8.5
2018-Jul-10 00:00N 29°39' W 094°58'4 8.6
2018-Jul-09 23:30N 29°42' W 095°01'6 1.8
2018-Jul-09 20:14N 29°44' W 095°07'0 0.0
2018-Jul-09 20:00N 29°44' W 095°07'0 0.0
2018-Jul-09 19:28N 29°44' W 095°07'0 0.3
2018-Jul-09 18:54N 29°44' W 095°07'  

Dump ship's entire track history